Wind_Speed
38 42 44 46 47 48 49 49 48 48 47 47 46 45 44 43 42 41 40 38 36 35 35 35 34 34 34 33 31 29 26 25 23 22 21 20 18 18 17 17 17 17 16 15 14 13 13 12 12 12 11 11 10 10 9 9 9 9 9 10 10 11 11
36 40 43 45 47 48 49 49 49 48 48 47 47 46 46 45 44 43 41 39 38 37 37 36 36 36 35 34 32 30 27 25 24 23 22 21 19 19 18 17 17 16 16 15 14 14 13 13 12 12 11 11 10 10 10 10 11 10 10 10 11 11 12
36 39 43 45 48 49 49 49 49 49 48 48 48 47 46 46 45 44 43 41 39 39 39 38 37 37 36 35 33 31 29 26 25 24 23 22 20 19 19 18 17 16 16 16 15 15 13 12 12 11 11 11 10 11 11 11 11 10 9 10 10 10 11
37 41 44 46 47 49 49 49 50 50 50 48 47 46 46 45 45 45 43 42 41 41 41 40 39 38 37 36 35 33 30 28 26 26 24 22 20 19 19 18 18 17 17 16 15 14 13 12 12 11 11 11 10 10 10 9 8 7 7 7 7 7 8
38 41 43 44 46 47 47 48 50 51 50 49 47 46 45 45 45 46 45 43 42 42 42 41 40 39 38 37 36 34 31 29 28 27 25 23 21 20 20 19 18 17 16 15 15 14 13 12 11 11 12 11 10 9 8 7 6 5 4 4 5 5 6
38 41 43 44 45 46 47 49 51 51 51 50 48 46 45 46 46 46 45 45 44 44 43 42 41 41 40 38 37 35 32 30 29 28 26 23 22 21 20 19 18 16 15 15 15 14 12 11 11 13 13 11 10 9 8 8 7 6 6 6 6 6 7
37 41 43 44 45 47 48 50 51 51 52 51 49 47 47 47 47 46 46 46 46 45 45 45 44 42 41 39 37 35 33 31 30 29 27 24 22 22 21 18 17 15 15 15 15 14 12 11 12 14 13 11 11 10 10 10 9 8 8 9 9 9 9
37 41 43 45 46 47 48 49 50 50 50 50 49 48 48 48 48 48 48 47 47 47 46 46 45 44 42 40 38 37 34 33 31 29 27 25 24 23 21 18 16 16 16 16 15 14 13 12 13 14 13 12 12 11 11 11 11 11 11 12 12 12 12
35 39 42 43 44 46 47 48 48 48 49 49 49 49 49 49 50 49 49 48 48 47 47 47 46 45 43 41 40 39 36 34 32 31 29 26 25 24 21 18 17 16 16 15 14 14 14 13 14 14 14 14 13 13 12 12 12 12 13 14 14 14 14
33 37 40 41 43 44 44 44 45 45 47 48 48 49 50 50 51 51 50 50 49 48 47 47 47 45 43 42 41 40 37 35 34 33 31 28 27 25 21 18 17 16 15 14 14 15 15 15 15 15 15 15 15 14 14 14 14 14 15 15 15 16 16
33 36 38 39 40 40 40 42 43 44 46 47 48 49 50 50 51 51 51 51 51 50 48 48 48 47 45 43 42 41 39 36 36 35 33 30 28 25 21 18 18 16 14 14 15 15 15 16 16 16 16 16 15 14 15 15 16 16 16 16 17 17 17
34 37 38 38 38 38 39 40 41 43 45 45 46 48 48 49 50 50 50 51 51 50 50 50 50 48 47 46 44 43 41 40 39 37 33 30 28 24 21 19 18 16 13 13 15 16 16 16 16 16 16 15 15 15 15 16 16 17 17 17 18 18 18
34 35 36 36 35 36 37 38 40 41 42 43 44 45 45 46 47 48 49 50 50 50 51 50 51 51 50 48 46 44 43 43 40 35 31 28 26 24 20 19 19 16 12 12 14 16 16 14 15 16 16 16 16 16 16 16 16 17 17 18 19 19 19
28 30 31 32 33 35 36 37 38 38 39 40 40 41 42 43 45 45 46 48 48 49 49 50 51 52 51 50 50 47 44 41 35 29 27 26 25 24 21 21 21 17 11 11 14 17 16 14 15 17 17 17 18 17 17 17 17 18 18 19 19 19 19
28 31 32 33 34 35 35 35 35 36 36 36 37 38 39 40 42 44 45 46 46 47 48 48 49 51 51 52 48 40 35 33 29 25 26 27 27 25 23 22 22 18 13 11 13 17 18 17 17 19 19 19 19 18 18 18 19 19 19 19 19 19 19
32 34 35 36 36 35 34 33 33 33 33 33 34 35 36 38 40 41 43 44 44 45 46 47 48 48 45 39 33 30 31 31 29 28 29 29 29 27 24 24 24 21 15 13 14 18 20 20 20 21 21 21 20 19 19 19 19 19 19 19 19 19 18
35 36 36 36 35 34 32 32 31 31 31 30 30 31 33 35 36 38 40 41 43 43 45 46 44 41 38 33 32 36 37 34 32 32 34 33 31 30 27 26 27 24 17 15 18 22 23 22 23 22 22 21 21 21 21 20 20 19 20 20 20 19 19
35 34 34 34 34 33 32 31 29 28 26 26 27 28 29 30 33 35 36 37 39 41 42 42 39 39 40 41 41 43 41 39 36 34 35 36 34 31 29 28 29 26 19 18 22 26 25 24 24 24 23 22 22 22 22 22 21 21 21 21 20 20 20
32 32 34 34 33 32 32 30 27 24 23 23 24 24 24 27 29 30 30 32 35 37 39 38 38 40 42 41 40 40 39 39 36 31 32 38 36 30 29 31 30 27 22 22 25 27 27 27 26 25 24 23 22 22 22 23 22 22 22 22 21 20 20
31 32 33 32 31 31 30 27 24 23 23 23 22 22 23 25 26 26 28 31 33 35 36 36 37 39 40 38 38 38 35 34 35 32 34 39 36 31 32 34 33 28 25 25 27 29 30 29 28 28 26 24 23 22 23 23 23 24 24 22 21 20 21
30 31 31 30 29 28 26 24 23 22 22 21 21 21 23 24 24 25 28 30 32 33 33 34 36 37 38 37 38 39 35 32 35 36 36 40 39 35 34 35 34 30 28 28 30 31 31 30 30 28 27 25 23 23 23 24 24 25 25 23 21 21 22
27 28 27 25 23 23 23 22 21 20 18 16 15 15 16 17 19 22 25 28 30 31 31 33 35 36 37 38 39 40 36 32 33 34 36 42 42 38 36 35 32 30 29 30 32 32 31 31 30 28 26 25 24 24 24 25 25 25 26 25 23 22 23
25 25 23 20 18 18 18 17 14 10 7 5 4 6 7 9 12 16 21 25 28 30 31 32 34 36 37 38 39 41 36 31 30 30 34 40 41 38 35 31 27 28 29 30 32 33 32 31 29 27 25 25 25 26 26 26 25 25 26 25 24 24 24
19 17 16 15 14 11 9 8 7 6 4 3 2 4 6 7 9 12 16 20 23 27 30 32 34 36 36 37 39 39 33 28 27 28 32 37 40 38 34 29 27 28 29 29 31 33 32 31 29 26 25 25 25 25 27 28 26 26 26 25 24 25 25
13 12 11 11 10 9 9 8 8 7 5 3 2 4 6 9 11 12 13 16 19 24 27 30 32 33 33 36 38 36 31 28 28 30 32 36 41 41 35 28 25 26 26 26 28 31 31 30 27 26 26 26 26 25 26 28 27 26 26 25 25 26 27
14 14 13 13 13 12 9 7 6 5 4 2 1 3 6 9 10 11 12 14 17 20 23 25 28 29 31 35 36 33 31 28 28 30 31 34 39 39 32 23 19 19 20 21 23 25 26 25 24 24 24 24 25 25 26 27 25 24 24 25 25 27 29
13 14 14 14 13 10 7 5 4 4 5 5 4 3 5 7 7 8 9 12 14 16 19 21 25 27 30 33 33 32 31 28 27 30 31 33 36 33 27 21 17 16 17 19 19 19 19 19 20 21 22 22 23 24 24 25 24 22 22 23 23 25 29
15 14 12 10 9 8 6 3 2 3 4 5 5 4 4 5 5 5 6 9 11 13 16 19 22 25 28 29 31 32 30 26 27 30 31 35 38 34 27 23 20 18 18 18 15 14 15 17 18 20 21 22 22 23 23 23 23 22 21 21 20 21 23
14 12 10 9 9 7 5 3 2 2 3 4 4 3 3 3 4 4 5 7 10 12 16 18 19 22 25 27 30 31 28 24 25 27 29 31 35 34 31 28 24 22 19 15 13 14 16 17 18 19 21 21 22 22 22 22 23 23 21 20 18 18 19
16 14 11 10 8 6 4 4 4 5 4 3 2 3 3 3 4 5 6 8 10 12 15 17 17 20 22 25 27 28 26 22 19 21 24 28 30 31 32 31 28 23 17 13 13 15 16 17 18 19 21 21 21 21 22 23 24 23 21 19 18 19 19
15 13 10 8 6 5 3 3 5 5 4 3 4 5 5 5 4 5 7 8 9 11 13 15 16 18 20 22 23 24 23 20 17 17 22 27 29 29 30 29 26 19 13 12 15 16 17 18 19 20 21 21 21 21 22 22 22 21 20 19 19 20 19
11 10 7 5 4 3 3 3 4 5 5 6 7 7 7 6 6 6 8 8 9 10 12 14 14 15 16 17 19 20 20 18 16 17 21 26 28 27 24 22 17 13 13 15 17 18 19 19 19 20 20 20 21 21 21 21 21 20 19 19 20 20 19
11 9 7 5 4 3 3 3 4 4 5 6 7 7 7 7 7 8 8 9 9 10 11 11 12 12 13 15 17 17 17 16 16 17 20 24 24 20 16 13 12 13 16 18 18 19 19 19 18 18 19 19 20 21 21 20 19 18 17 18 19 20 19
8 7 7 6 5 5 6 7 7 6 6 6 6 6 7 8 8 8 8 8 8 7 8 10 10 11 12 15 15 13 14 16 17 18 19 19 16 13 11 11 12 15 17 19 19 19 18 17 18 18 19 20 21 21 20 18 16 16 17 17 18 19 18
9 7 7 6 4 4 6 7 7 7 7 7 7 7 8 7 7 7 7 7 6 6 7 9 11 12 13 14 14 14 16 18 17 17 16 13 11 10 11 12 13 16 18 19 18 17 16 17 18 18 20 21 21 20 18 15 14 15 16 17 17 18 17
10 9 7 6 5 4 5 6 6 7 7 7 8 8 7 6 6 7 7 7 7 7 8 10 12 14 14 14 14 14 14 12 10 9 8 7 6 8 11 13 15 17 18 16 15 15 16 17 18 19 20 19 18 16 15 14 13 14 15 16 17 17 16
8 8 7 7 5 4 5 5 5 6 7 8 8 8 7 6 7 7 8 8 9 9 11 13 14 14 14 14 13 12 9 6 5 5 7 9 11 13 15 17 18 17 16 15 15 15 16 17 18 18 17 16 15 14 14 14 14 15 16 16 16 16 15
6 6 6 5 3 2 2 2 3 5 5 6 7 7 7 7 8 9 11 12 12 12 13 15 16 18 18 16 13 10 8 8 10 11 14 16 16 17 18 19 19 17 15 15 15 15 15 16 17 16 15 14 14 14 14 15 16 17 17 17 15 14 13
Wind_Direction
208 209 210 211 213 214 214 215 217 218 219 220 221 222 222 222 222 223 224 226 227 225 223 222 223 224 224 225 225 226 226 227 229 231 232 233 236 238 240 242 243 244 243 243 244 247 250 251 252 251 244 238 237 239 244 250 256 260 263 266 265 264 265
207 208 209 210 212 213 215 215 217 218 219 221 222 222 222 222 223 224 226 227 227 224 222 223 224 225 225 226 226 226 225 226 228 228 229 229 230 232 233 235 236 236 236 236 238 242 244 245 246 243 236 232 233 237 242 248 253 257 259 262 262 262 264
206 208 209 210 212 214 214 214 215 218 219 221 222 222 223 224 225 226 227 227 225 223 223 223 225 226 226 226 226 226 224 224 225 225 225 225 226 228 229 229 230 229 229 230 233 236 239 241 241 236 229 229 231 236 243 248 251 254 256 260 262 264 266
206 208 210 212 213 214 214 213 215 217 219 222 223 224 225 225 225 226 227 228 225 223 222 223 225 226 226 226 226 225 223 222 221 222 223 222 223 225 226 226 227 225 224 226 229 232 234 236 235 231 225 222 225 233 240 243 244 247 249 256 263 266 268
205 207 210 211 212 213 214 214 216 217 219 221 224 226 227 226 226 227 228 228 227 225 224 225 225 226 226 226 226 225 222 220 219 220 220 219 220 222 223 225 225 223 223 226 228 229 229 231 231 225 217 214 218 223 223 223 225 232 242 257 270 277 281
202 203 207 210 211 213 214 215 217 218 220 222 224 226 226 226 227 227 227 227 227 226 225 226 227 227 226 226 227 227 224 221 220 219 218 217 218 221 223 224 223 222 224 226 229 229 228 229 227 219 213 214 216 212 212 219 227 236 248 259 269 279 287
200 202 206 210 212 213 215 216 217 219 221 223 224 224 224 225 226 226 227 227 227 226 225 226 227 227 227 226 227 227 226 224 222 222 220 218 218 221 223 223 220 219 223 226 229 229 228 230 224 215 214 218 218 217 221 229 235 243 253 262 267 271 278
203 204 208 212 214 216 216 216 217 218 220 221 221 222 224 225 226 226 227 227 227 227 226 226 227 227 226 226 225 225 223 222 222 222 222 220 218 220 222 220 217 218 222 226 229 231 231 230 222 217 220 223 225 227 232 237 243 249 256 264 268 271 275
207 209 212 215 217 218 218 217 217 217 218 219 221 223 225 226 226 227 227 227 227 227 226 227 228 227 226 226 226 225 222 220 220 221 221 221 219 220 221 217 214 217 223 228 232 234 233 228 223 223 226 228 231 234 240 247 252 254 257 263 268 272 275
208 211 215 217 218 218 217 216 216 215 217 219 221 224 226 226 227 228 228 228 228 227 227 227 228 227 227 226 226 226 223 219 219 219 219 219 218 218 218 215 213 217 222 228 233 235 233 228 226 228 231 234 238 243 250 256 259 260 261 263 267 272 276
210 213 215 216 215 215 214 215 215 216 218 221 223 226 227 227 228 229 229 230 230 230 228 228 229 229 228 227 227 227 224 220 219 218 216 216 216 215 214 212 211 213 217 224 230 232 232 230 229 233 238 243 249 253 258 263 265 265 266 268 271 274 277
212 213 213 214 213 214 215 216 217 219 221 223 225 227 227 228 229 230 231 232 232 232 230 229 230 231 230 229 227 226 224 220 219 218 214 215 216 213 210 210 208 206 212 224 230 231 231 233 235 240 246 251 255 258 262 266 269 270 272 275 275 275 276
212 211 212 213 213 215 216 217 220 222 224 226 227 228 229 230 232 232 233 234 234 233 231 230 231 233 233 231 228 227 225 221 219 217 216 216 217 213 209 209 206 202 209 226 232 232 232 233 238 245 251 255 257 259 264 268 270 273 275 277 277 277 279
210 211 212 213 214 216 217 218 221 224 226 228 229 230 231 233 234 235 236 236 235 233 232 232 233 234 234 233 230 228 224 216 213 217 221 223 222 216 210 209 205 202 215 234 234 227 222 222 233 243 249 253 255 259 265 268 270 274 276 277 279 280 283
207 210 212 213 215 217 218 220 224 227 230 232 232 233 234 235 236 236 236 237 235 234 234 234 235 235 236 234 229 222 214 205 205 214 223 226 226 219 212 209 205 205 224 244 234 220 216 218 230 239 244 250 255 260 265 268 271 276 278 278 280 281 283
205 210 212 214 216 218 221 225 229 232 234 235 236 238 239 239 239 238 239 239 238 237 236 237 238 237 233 225 215 212 213 208 205 210 215 220 221 217 213 209 206 210 230 246 230 216 217 222 229 235 241 248 254 260 264 268 271 275 277 277 277 277 277
205 208 210 213 216 219 224 228 230 233 235 238 241 244 244 245 245 243 243 242 242 241 240 239 236 229 220 215 217 222 219 212 209 211 213 215 216 215 212 208 207 216 236 245 229 220 222 227 231 235 241 247 254 260 264 268 271 272 274 273 271 271 271
206 206 208 211 215 218 222 224 227 230 235 241 245 247 249 250 248 246 247 248 247 245 242 236 228 222 222 225 228 226 217 212 215 214 212 215 218 216 211 207 210 222 234 230 222 224 228 231 234 237 242 246 253 260 264 269 272 271 271 270 267 265 266
205 205 208 212 214 214 216 219 224 229 235 242 246 249 253 253 252 253 254 253 250 245 238 230 225 227 229 228 226 224 218 216 217 211 207 215 222 219 212 211 215 226 237 230 223 227 232 235 238 241 243 247 253 260 266 271 273 272 269 268 264 261 260
205 208 210 212 213 213 215 218 223 228 234 241 245 249 251 252 255 258 256 252 248 243 235 228 226 230 230 227 225 223 220 217 215 211 207 211 216 214 213 216 220 229 242 240 230 230 234 239 242 244 246 250 255 261 268 272 273 273 270 268 264 259 258
206 208 210 211 213 213 212 213 219 227 234 242 249 254 256 258 259 258 254 250 246 240 232 227 227 229 230 229 227 223 223 222 219 217 212 208 207 208 211 217 222 231 243 242 233 232 238 243 247 250 252 256 260 264 270 273 275 274 271 269 266 260 257
205 209 211 212 210 206 206 212 222 232 241 250 257 263 266 266 264 260 255 249 243 237 231 228 229 230 230 232 231 227 228 229 226 223 218 211 206 205 208 216 225 235 243 242 237 237 243 247 250 253 256 260 263 267 272 276 277 275 273 273 271 266 263
207 212 211 206 204 204 209 218 224 227 233 245 263 276 279 271 263 256 252 248 242 237 233 230 230 232 235 240 241 235 231 233 230 223 217 213 208 205 209 218 229 236 239 241 240 242 246 250 253 257 261 264 267 270 274 278 280 279 277 276 275 273 272
204 204 197 192 195 196 192 188 172 148 135 109 42 334 319 300 280 263 251 247 243 238 235 234 236 240 245 249 245 235 229 230 226 214 211 212 209 207 212 221 228 232 236 242 245 245 248 252 257 262 265 268 272 276 278 279 279 280 280 279 277 276 275
169 163 157 154 155 146 137 137 130 123 125 111 52 351 333 314 299 286 271 259 251 245 243 243 246 250 252 248 240 232 229 228 218 208 208 209 208 210 216 223 228 233 240 248 250 250 251 255 261 267 270 272 276 280 280 281 282 283 282 282 281 279 278
138 138 133 128 131 133 132 139 145 149 165 181 315 340 333 320 309 301 290 275 262 257 256 257 257 256 251 243 235 231 232 227 213 206 207 208 207 210 215 220 229 238 247 255 255 251 252 256 264 272 278 280 283 284 284 286 288 289 287 285 284 282 279
129 132 134 132 133 135 136 152 179 197 213 227 251 300 321 316 309 307 297 283 274 272 270 266 259 253 247 241 235 231 231 227 213 206 207 207 207 209 215 224 238 251 257 258 252 248 255 265 272 281 287 290 290 289 287 289 292 293 291 287 286 287 287
128 132 137 132 126 127 128 142 188 217 232 245 268 292 305 304 302 309 304 292 288 284 276 266 258 252 246 240 233 229 228 227 219 210 208 211 213 215 221 231 244 258 260 255 252 258 271 279 284 288 290 290 290 289 290 293 295 296 292 287 287 291 295
108 108 110 105 101 105 97 67 12 317 296 295 298 295 298 304 301 306 305 296 290 284 275 267 259 253 246 238 233 228 223 223 222 215 212 216 219 222 226 232 245 258 258 255 262 272 276 280 284 286 286 286 287 288 291 294 295 294 291 287 287 289 289
82 82 83 79 76 77 63 26 1 356 343 322 304 285 281 288 288 291 297 294 288 281 274 266 256 249 242 236 233 229 221 217 218 216 215 219 222 223 226 234 247 256 256 259 269 272 274 278 281 283 284 286 288 287 289 292 291 290 288 286 286 285 283
76 75 71 62 54 43 26 9 359 357 347 323 311 301 292 287 285 288 291 290 284 275 268 262 251 242 236 232 230 226 221 217 215 215 218 221 221 221 227 238 249 253 255 265 268 268 271 274 276 280 284 285 285 285 287 288 287 286 285 285 285 283 281
82 80 74 63 46 23 7 358 343 333 328 323 317 310 302 292 284 286 286 282 276 267 261 255 245 236 231 226 220 218 218 218 215 216 219 220 220 223 232 241 247 251 256 261 261 262 267 270 274 279 281 281 282 283 285 285 286 286 286 285 283 282 282
90 89 81 61 39 18 341 314 307 310 318 320 314 310 302 288 281 285 284 276 271 264 256 245 234 228 219 207 202 206 210 209 207 211 218 221 223 230 239 242 243 251 255 255 257 262 266 270 274 277 277 278 280 283 284 285 286 288 286 283 282 283 283
82 85 76 60 40 13 348 330 326 328 325 316 310 307 299 288 283 283 278 271 264 255 242 229 219 212 202 196 197 204 205 203 204 209 217 225 230 235 238 239 244 251 253 254 259 265 269 273 276 276 277 280 282 282 283 285 287 288 287 286 287 288 288
78 79 74 66 47 11 345 331 332 335 327 314 307 302 295 288 280 269 261 255 242 221 210 210 207 201 198 201 204 204 201 201 206 212 218 226 235 242 245 248 253 256 257 259 263 267 270 273 275 276 279 280 280 280 282 286 290 291 291 292 292 292 292
85 86 85 76 57 19 348 338 338 332 316 303 297 292 285 276 259 245 238 232 219 202 191 191 193 191 191 194 193 188 189 197 207 213 215 222 239 255 263 267 266 263 261 263 264 266 269 271 273 275 277 277 277 281 286 293 297 295 294 294 293 292 291
84 82 77 70 56 24 356 346 334 319 307 298 291 284 277 261 237 221 214 205 199 194 188 187 186 181 177 177 173 165 159 153 157 182 211 226 235 242 251 261 266 264 260 262 265 267 268 270 271 273 275 278 282 288 293 298 300 299 297 296 294 292 291
69 61 56 53 49 24 351 334 319 309 301 294 287 276 262 243 222 206 196 189 185 183 181 178 175 171 167 161 151 147 163 181 189 207 227 240 245 247 252 260 264 262 260 264 267 268 267 268 270 273 278 283 287 290 294 297 299 299 298 297 295 292 290
Height
1472 1474 1478 1480 1483 1485 1487 1489 1492 1496 1499 1502 1504 1507 1509 1512 1514 1516 1518 1519 1521 1523 1525 1527 1528 1530 1531 1532 1534 1536 1537 1539 1540 1541 1543 1544 1545 1546 1547 1548 1548 1549 1550 1550 1550 1550 1551 1551 1551 1552 1552 1553 1553 1553 1554 1554 1554 1554 1554 1554 1554 1554 1554
1469 1471 1474 1476 1478 1481 1483 1486 1489 1492 1495 1498 1500 1503 1506 1508 1511 1512 1514 1516 1518 1520 1522 1524 1525 1527 1528 1530 1532 1533 1535 1537 1538 1539 1540 1541 1543 1544 1545 1546 1547 1548 1548 1548 1549 1549 1549 1550 1550 1551 1551 1551 1552 1552 1552 1552 1552 1553 1553 1553 1553 1553 1553
1464 1467 1469 1471 1473 1476 1479 1482 1485 1488 1490 1493 1496 1499 1502 1504 1506 1508 1510 1512 1515 1517 1519 1521 1522 1524 1526 1527 1529 1531 1532 1534 1535 1537 1538 1539 1540 1542 1543 1544 1545 1546 1547 1547 1547 1547 1548 1548 1548 1549 1549 1550 1550 1551 1551 1551 1551 1551 1551 1551 1551 1551 1551
1459 1461 1464 1467 1469 1472 1476 1478 1481 1483 1486 1489 1492 1495 1497 1500 1502 1505 1507 1509 1512 1514 1515 1517 1519 1521 1523 1524 1526 1528 1529 1531 1533 1534 1536 1537 1538 1540 1541 1542 1543 1544 1545 1545 1545 1546 1546 1547 1547 1547 1547 1548 1549 1549 1549 1549 1549 1549 1549 1549 1549 1549 1550
1453 1457 1460 1463 1466 1469 1472 1474 1477 1479 1482 1485 1489 1492 1494 1497 1500 1502 1505 1507 1509 1511 1512 1514 1516 1518 1520 1521 1523 1525 1527 1528 1530 1531 1533 1535 1536 1538 1539 1541 1542 1543 1543 1544 1544 1544 1545 1545 1545 1546 1546 1546 1547 1547 1547 1548 1548 1548 1548 1548 1548 1548 1548
1447 1451 1455 1458 1461 1464 1467 1470 1472 1475 1478 1481 1484 1488 1491 1494 1497 1499 1501 1503 1505 1507 1510 1512 1514 1514 1516 1518 1520 1523 1525 1526 1527 1529 1531 1533 1534 1536 1538 1540 1541 1541 1542 1542 1542 1543 1543 1544 1544 1544 1544 1545 1545 1545 1546 1546 1546 1546 1546 1546 1546 1546 1547
1442 1446 1450 1453 1456 1459 1462 1465 1468 1471 1475 1478 1481 1485 1488 1491 1493 1495 1497 1499 1501 1503 1506 1507 1509 1511 1513 1515 1517 1520 1522 1524 1526 1528 1530 1531 1533 1535 1537 1538 1539 1540 1540 1541 1541 1542 1542 1542 1542 1542 1543 1543 1543 1543 1544 1544 1544 1544 1544 1544 1544 1545 1545
1437 1441 1444 1448 1450 1454 1457 1460 1464 1468 1471 1475 1479 1482 1484 1487 1489 1491 1493 1494 1496 1499 1501 1503 1505 1507 1509 1511 1513 1515 1518 1520 1523 1526 1528 1530 1531 1533 1535 1536 1537 1538 1538 1539 1540 1540 1541 1541 1541 1541 1541 1541 1541 1542 1542 1542 1542 1543 1542 1542 1542 1542 1543
1434 1437 1440 1444 1447 1449 1453 1456 1460 1465 1468 1472 1475 1477 1480 1481 1483 1485 1487 1489 1492 1494 1496 1499 1501 1503 1505 1508 1510 1511 1513 1516 1519 1522 1525 1527 1529 1531 1532 1534 1535 1536 1536 1537 1538 1539 1539 1540 1540 1540 1540 1540 1540 1540 1540 1541 1541 1541 1541 1541 1541 1540 1540
1433 1436 1438 1441 1444 1447 1451 1454 1458 1462 1465 1468 1471 1473 1475 1477 1479 1481 1483 1486 1488 1490 1493 1496 1497 1500 1502 1504 1506 1507 1510 1513 1516 1518 1520 1523 1525 1528 1530 1531 1532 1533 1534 1535 1536 1537 1537 1538 1539 1539 1539 1539 1539 1539 1539 1539 1539 1539 1539 1539 1539 1539 1538
1431 1434 1437 1440 1443 1446 1449 1452 1454 1458 1460 1463 1466 1468 1470 1472 1475 1477 1480 1482 1484 1487 1490 1492 1494 1496 1498 1500 1502 1504 1507 1509 1511 1513 1516 1519 1522 1525 1527 1529 1530 1531 1532 1533 1534 1534 1535 1536 1537 1537 1537 1537 1538 1538 1537 1538 1537 1537 1538 1538 1537 1537 1537
1428 1431 1434 1437 1440 1443 1446 1448 1451 1454 1456 1459 1462 1464 1467 1469 1472 1474 1476 1479 1481 1483 1486 1488 1491 1492 1494 1496 1498 1500 1503 1505 1507 1509 1513 1518 1521 1524 1526 1527 1528 1529 1530 1531 1531 1532 1533 1534 1535 1535 1535 1536 1536 1536 1536 1535 1535 1535 1535 1536 1535 1535 1535
1426 1429 1432 1435 1439 1441 1444 1446 1449 1451 1454 1457 1459 1462 1464 1467 1469 1471 1473 1475 1478 1480 1482 1485 1487 1488 1490 1492 1494 1497 1499 1501 1505 1511 1517 1521 1523 1524 1525 1526 1527 1528 1528 1529 1530 1530 1531 1532 1533 1533 1533 1534 1534 1534 1534 1533 1533 1533 1533 1533 1533 1533 1532
1426 1429 1432 1435 1437 1439 1442 1444 1447 1450 1452 1455 1458 1460 1463 1465 1467 1469 1470 1472 1475 1477 1479 1481 1483 1484 1486 1488 1490 1495 1496 1499 1509 1519 1523 1524 1524 1524 1524 1524 1525 1526 1527 1527 1527 1528 1529 1529 1530 1531 1531 1532 1532 1532 1532 1531 1531 1531 1531 1531 1531 1531 1530
1424 1427 1429 1432 1434 1437 1440 1443 1446 1449 1451 1454 1456 1459 1461 1463 1465 1467 1468 1470 1473 1474 1476 1478 1480 1481 1484 1486 1490 1494 1495 1501 1514 1523 1523 1523 1522 1522 1522 1523 1523 1524 1525 1525 1525 1525 1526 1526 1527 1528 1529 1529 1530 1530 1530 1529 1529 1529 1529 1529 1529 1528 1527
1420 1423 1425 1428 1431 1434 1438 1442 1444 1447 1450 1452 1455 1456 1458 1460 1462 1464 1466 1468 1470 1471 1473 1475 1477 1480 1484 1488 1492 1495 1497 1505 1514 1517 1516 1517 1518 1519 1521 1522 1522 1523 1523 1523 1522 1523 1524 1524 1525 1525 1526 1527 1527 1528 1527 1527 1527 1527 1527 1527 1526 1526 1525
1416 1419 1422 1425 1430 1433 1437 1440 1443 1446 1448 1450 1452 1454 1456 1458 1459 1461 1463 1465 1467 1468 1470 1473 1476 1480 1483 1486 1489 1492 1496 1502 1508 1509 1510 1513 1514 1517 1519 1519 1519 1520 1520 1520 1521 1522 1522 1523 1523 1523 1523 1524 1524 1525 1525 1525 1525 1525 1525 1524 1524 1523 1523
1414 1417 1420 1424 1428 1432 1435 1439 1441 1444 1447 1449 1451 1453 1454 1456 1458 1459 1461 1463 1464 1466 1469 1472 1475 1477 1477 1479 1483 1485 1488 1495 1500 1503 1508 1511 1512 1514 1516 1516 1516 1516 1517 1517 1518 1520 1520 1521 1521 1520 1521 1521 1521 1521 1522 1522 1522 1522 1522 1522 1521 1521 1520
1413 1416 1420 1423 1427 1430 1434 1437 1440 1443 1445 1448 1449 1451 1453 1454 1455 1457 1458 1461 1463 1465 1468 1471 1472 1472 1473 1477 1481 1482 1486 1493 1498 1502 1505 1507 1509 1513 1515 1514 1513 1513 1514 1514 1516 1517 1518 1518 1518 1518 1518 1518 1518 1518 1519 1519 1519 1519 1519 1519 1518 1518 1517
1414 1416 1419 1422 1425 1429 1432 1435 1439 1442 1444 1446 1448 1449 1451 1452 1453 1455 1457 1459 1461 1464 1466 1468 1469 1470 1472 1476 1479 1480 1484 1490 1494 1496 1498 1500 1504 1510 1512 1511 1510 1511 1512 1512 1513 1514 1515 1516 1516 1515 1515 1515 1515 1516 1516 1516 1516 1516 1516 1516 1515 1516 1515
1413 1415 1418 1421 1424 1427 1431 1434 1438 1440 1443 1445 1446 1448 1449 1450 1452 1453 1455 1457 1459 1462 1464 1465 1466 1467 1469 1471 1473 1475 1479 1484 1487 1489 1491 1494 1497 1501 1504 1506 1507 1508 1509 1510 1510 1512 1512 1513 1513 1513 1513 1513 1513 1513 1513 1513 1513 1513 1513 1513 1513 1513 1512
1412 1415 1418 1421 1424 1428 1431 1435 1437 1440 1442 1444 1445 1447 1448 1449 1450 1452 1453 1455 1457 1459 1461 1462 1463 1464 1465 1467 1468 1470 1475 1479 1481 1484 1488 1490 1493 1495 1498 1501 1503 1504 1505 1506 1508 1509 1510 1510 1510 1510 1510 1511 1511 1511 1510 1510 1511 1511 1510 1510 1510 1510 1509
1411 1415 1419 1423 1427 1430 1433 1436 1438 1440 1441 1443 1444 1446 1447 1448 1449 1449 1450 1452 1453 1455 1457 1458 1459 1460 1462 1463 1463 1465 1470 1474 1477 1481 1485 1489 1491 1493 1496 1498 1499 1500 1501 1503 1504 1506 1507 1507 1508 1508 1508 1508 1509 1509 1508 1508 1509 1508 1508 1508 1507 1507 1506
1413 1417 1420 1424 1428 1431 1434 1436 1437 1439 1440 1442 1444 1445 1446 1447 1447 1447 1448 1449 1450 1452 1453 1454 1455 1456 1457 1458 1459 1462 1467 1471 1475 1479 1483 1488 1490 1492 1494 1496 1497 1497 1498 1499 1501 1503 1504 1505 1505 1505 1505 1505 1506 1506 1505 1505 1506 1506 1505 1505 1504 1504 1503
1414 1418 1422 1425 1429 1433 1435 1437 1438 1439 1440 1442 1444 1445 1445 1446 1446 1446 1447 1447 1448 1450 1450 1451 1452 1453 1455 1456 1458 1462 1466 1469 1471 1475 1478 1483 1486 1488 1491 1493 1494 1495 1496 1497 1499 1500 1502 1502 1502 1502 1502 1502 1502 1502 1501 1501 1502 1502 1502 1501 1501 1500 1499
1416 1420 1423 1426 1429 1432 1435 1437 1439 1440 1441 1443 1444 1445 1445 1445 1446 1446 1446 1447 1447 1448 1448 1449 1450 1452 1454 1456 1458 1461 1463 1466 1469 1471 1474 1478 1482 1486 1490 1491 1491 1492 1493 1494 1496 1498 1498 1499 1499 1499 1499 1499 1498 1498 1498 1498 1498 1498 1498 1497 1497 1496 1494
1419 1422 1424 1426 1428 1430 1433 1436 1438 1440 1441 1443 1444 1444 1445 1445 1445 1445 1445 1446 1446 1447 1447 1448 1450 1452 1453 1455 1457 1460 1462 1464 1467 1469 1472 1476 1480 1484 1487 1488 1488 1489 1490 1492 1493 1494 1495 1495 1495 1495 1495 1495 1495 1495 1495 1494 1494 1494 1494 1493 1492 1492 1490
1420 1423 1424 1425 1427 1430 1432 1435 1437 1439 1440 1441 1443 1443 1443 1444 1444 1444 1444 1445 1445 1446 1447 1447 1449 1450 1452 1454 1456 1458 1460 1463 1466 1468 1471 1475 1478 1481 1483 1484 1485 1486 1488 1490 1490 1491 1491 1491 1491 1492 1492 1492 1492 1491 1491 1491 1490 1490 1489 1489 1489 1488 1487
1421 1423 1425 1426 1428 1430 1433 1435 1437 1438 1440 1441 1441 1442 1442 1442 1442 1442 1443 1444 1444 1445 1446 1446 1448 1449 1450 1452 1454 1456 1459 1462 1464 1467 1470 1473 1476 1478 1480 1481 1482 1484 1486 1487 1487 1487 1487 1488 1488 1489 1488 1488 1488 1488 1487 1487 1486 1486 1486 1485 1485 1485 1484
1421 1423 1425 1426 1429 1430 1432 1435 1436 1438 1439 1440 1441 1442 1441 1441 1441 1441 1441 1442 1443 1444 1445 1445 1446 1447 1448 1450 1453 1455 1458 1461 1463 1465 1468 1471 1474 1476 1477 1479 1481 1482 1483 1483 1483 1484 1484 1485 1485 1485 1485 1485 1485 1485 1484 1484 1483 1483 1482 1482 1482 1481 1481
1422 1424 1425 1427 1429 1430 1432 1434 1435 1437 1439 1440 1441 1441 1440 1439 1439 1439 1440 1441 1442 1443 1443 1444 1445 1446 1447 1450 1452 1454 1457 1459 1461 1464 1466 1469 1471 1473 1475 1477 1478 1479 1480 1480 1480 1481 1481 1482 1482 1482 1482 1482 1482 1482 1482 1481 1480 1480 1480 1479 1478 1478 1478
1423 1425 1426 1428 1429 1431 1433 1434 1435 1437 1439 1440 1441 1440 1439 1439 1438 1438 1439 1439 1440 1441 1442 1443 1444 1445 1447 1449 1451 1453 1456 1458 1460 1462 1465 1468 1469 1471 1473 1474 1475 1476 1476 1477 1477 1478 1479 1479 1479 1479 1479 1480 1480 1480 1479 1479 1478 1478 1477 1477 1476 1475 1476
1424 1425 1427 1429 1430 1432 1434 1435 1435 1436 1436 1438 1439 1438 1438 1438 1438 1437 1438 1438 1439 1440 1441 1442 1443 1445 1446 1448 1450 1453 1455 1457 1460 1462 1464 1466 1468 1469 1470 1471 1472 1473 1473 1474 1475 1476 1476 1477 1477 1477 1477 1477 1477 1477 1476 1476 1476 1475 1475 1474 1473 1472 1473
1424 1425 1426 1428 1429 1431 1433 1434 1434 1434 1434 1436 1436 1436 1437 1437 1436 1437 1437 1437 1439 1440 1440 1441 1443 1444 1446 1448 1450 1453 1455 1457 1460 1461 1463 1465 1466 1467 1467 1468 1470 1471 1471 1472 1473 1473 1474 1474 1474 1475 1475 1475 1475 1475 1474 1474 1474 1473 1472 1471 1470 1470 1470
1422 1424 1425 1426 1427 1429 1430 1430 1432 1433 1434 1435 1435 1435 1435 1435 1435 1436 1436 1437 1438 1439 1440 1441 1442 1444 1446 1448 1450 1452 1455 1457 1459 1460 1462 1463 1464 1465 1466 1467 1468 1469 1469 1470 1471 1471 1471 1472 1472 1473 1473 1473 1473 1472 1472 1472 1471 1470 1470 1469 1468 1468 1467
1423 1424 1425 1425 1425 1426 1426 1428 1431 1432 1434 1434 1434 1434 1434 1434 1434 1435 1435 1437 1438 1439 1440 1441 1442 1444 1446 1448 1450 1452 1454 1456 1458 1459 1460 1461 1462 1465 1467 1467 1468 1468 1468 1468 1468 1469 1469 1470 1470 1471 1471 1471 1471 1470 1469 1469 1469 1468 1467 1467 1466 1466 1465
1425 1424 1424 1423 1423 1424 1426 1429 1431 1432 1433 1433 1433 1433 1434 1434 1434 1434 1435 1436 1437 1438 1439 1441 1442 1444 1446 1447 1449 1451 1452 1454 1456 1457 1459 1460 1462 1463 1465 1466 1467 1467 1466 1467 1467 1467 1467 1468 1468 1468 1468 1468 1468 1468 1467 1467 1466 1466 1465 1465 1464 1464 1463
1423 1423 1423 1423 1423 1425 1427 1429 1430 1431 1432 1432 1432 1433 1433 1433 1433 1433 1434 1435 1436 1437 1438 1440 1441 1442 1444 1446 1449 1450 1452 1453 1454 1456 1459 1460 1460 1462 1463 1463 1464 1465 1465 1465 1465 1465 1466 1466 1466 1466 1466 1466 1466 1465 1465 1465 1464 1464 1463 1462 1462 1461 1461